Home > Weather > Aqtobe > Past weeks

Flag for Kazakhstan Weather for the Past 2 Weeks in Aqtobe, Kazakhstan

Now
28 °F

Mostly cloudy.


Feels Like: 22 °F
Forecast: 10 / 23 °F
Wind: 6 mph from Northwest

Location: Aktjubinsk

Current Time: Feb 9, 2016 at 7:24:50 PM

Latest Report: Feb 9, 2016 at 6:30 PM


Visibility: N/A

Pressure: 30.42 "Hg

Humidity: 86%

Dew point: 25 °F

Location of AqtobeLocation

Historic Weather in Aqtobe — Graph

°F

Aqtobe Temperature Yesterday

Maximum temperature yesterday: 25 °F (at 12:30 AM)
Minimum temperature yesterday: 14 °F (at 8:30 AM)
Average temperature yesterday: 20 °F

High & Low Weather Summary for the Past Weeks

 TemperatureHumidityPressure
High36 °F (Feb 5, 10:00 AM)100% (Jan 31, 10:00 PM)30.42 "Hg (Jan 31, 10:00 PM)
Low-20 °F (Jan 29, 2:30 AM)74% (Feb 8, 3:30 AM)29.62 "Hg (Feb 7, 1:00 AM)
Average20 °F91%30.05 "Hg
* Reported Jan 25 6:00 PM — Feb 9 6:00 PM, Aqtobe, Weather by CustomWeather, © 2016

Note: Actual official high and low records may vary slightly from our data, if they occured in-between our weather recording intervals... More about our weather records

Advertising

Aqtobe Weather History for the Previous 24 Hours

 ConditionsComfort  
Time TempWeatherWind HumidityBarometerVisibility
6:00 PM
Tue, Feb 9
28 °FOvercast.8 mph86%30.42 "HgN/A
5:30 PM28 °FLow clouds.8 mph93%30.42 "HgN/A
5:00 PM28 °FLow clouds.10 mph93%30.42 "HgN/A
4:30 PM28 °FLow clouds.10 mph86%30.39 "HgN/A
3:30 PM28 °FLow clouds.13 mph86%30.39 "HgN/A
3:00 PM27 °FLight snow. Low clouds.13 mph93%30.39 "HgN/A
2:30 PM27 °FLow clouds.10 mph93%30.39 "HgN/A
2:00 PM27 °FLow clouds.10 mph93%30.39 "HgN/A
1:00 PM27 °FLow clouds.13 mph93%30.39 "HgN/A
12:30 PM27 °FLow clouds.13 mph93%30.39 "HgN/A
12:00 PM27 °FLow clouds.13 mph93%30.39 "HgN/A
11:30 AM25 °FLow clouds.13 mph100%30.39 "HgN/A
11:00 AM25 °FLow clouds.10 mph93%30.39 "HgN/A
10:30 AM25 °FLow clouds.10 mph93%30.39 "HgN/A
9:30 AM25 °FLow clouds.15 mph93%30.36 "HgN/A
8:30 AM23 °FLight snow. Low clouds.15 mph93%30.33 "HgN/A
8:00 AM23 °FLight snow. Overcast.13 mph93%30.33 "HgN/A
7:30 AM23 °FLight snow. Overcast.13 mph93%30.36 "HgN/A
7:00 AM23 °FLight snow. Overcast.15 mph93%30.36 "HgN/A
6:30 AM23 °FClear.17 mph86%30.33 "Hg10 mi
6:00 AM21 °FLight snow. Overcast.17 mph93%30.33 "Hg5 mi
5:30 AM21 °FClear.15 mph93%30.36 "Hg10 mi
5:00 AM21 °FMostly cloudy.15 mph93%30.36 "HgN/A
4:30 AM21 °FLight snow. Mostly cloudy.17 mph93%30.36 "HgN/A
4:00 AM19 °FClear.10 mph93%30.36 "Hg10 mi
3:00 AM19 °FSnow flurries. Mostly cloudy.10 mph93%30.39 "Hg5 mi
2:30 AM19 °FSnow showers. Mostly cloudy.10 mph93%30.39 "Hg2 mi
2:00 AM19 °FSnow showers. Mostly cloudy.10 mph93%30.39 "Hg2 mi
1:30 AM18 °FLight snow. Mostly cloudy.8 mph93%30.39 "HgN/A
1:00 AM18 °FLight snow. Mostly cloudy.8 mph93%30.39 "HgN/A
12:30 AM18 °FClear.10 mph93%30.39 "Hg10 mi
12:00 AM18 °FClear.10 mph86%30.39 "Hg10 mi
11:30 PM
Mon, Feb 8
18 °FClear.8 mph86%30.39 "Hg10 mi
11:00 PM16 °FClear.6 mph93%30.39 "Hg10 mi
10:30 PM16 °FClear.10 mph86%30.39 "Hg10 mi
10:00 PM16 °FClear.10 mph86%30.39 "Hg10 mi
9:30 PM14 °FClear.6 mph92%30.36 "Hg10 mi
9:00 PM16 °FClear.8 mph93%30.36 "Hg10 mi
8:30 PM18 °FClear.8 mph86%30.36 "Hg10 mi
8:00 PM18 °FClear.10 mph100%30.36 "Hg10 mi
7:30 PM21 °FPassing clouds.10 mph86%30.33 "HgN/A
7:00 PM23 °FPassing clouds.10 mph86%30.33 "HgN/A
Weather by CustomWeather, © 2016

See weather overviewHow to use our weather pages